Location: Cosy Dell
(34.2789°N, 117.4537°W)
Time: 21:07:23
(UTC+00:00)

Alouette 2 Rocket - Pass Details

Date: 14 July 2020
Orbit: 502 x 2650 km, 79.8° (Epoch: 13 August)

Event Time Altitude Azimuth Distance (km) Brightness Sun altitude
Rises 04:04:43 0° 353° (N) 2,999 7.8 -11.7°
Reaches altitude 10° 04:06:37 10° 355° (N) 2,236 7.0 -12.0°
Maximum altitude 04:11:33 74° 81° (E) 995 4.4 -12.8°
Drops below altitude 10° 04:19:18 10° 166° (SSE) 3,450 6.9 -14.1°
Enters shadow 04:19:50 - 166° (SSE) 3,648 7.0 -14.1°
